www.pogodaiklimat.ru

Погода и климат >> Архив погоды >> Россия >> город Москва >> Москва


АРХИВ ПОГОДЫ в Москве

Время (UTC), дата Ветер
(напр.,м/с)
 
Видим.   Явления Облачность Т
(С)
Тd
(С)
f
(%)
Тe
(С)
Тes
(С)
Комфортность P
(гПа)
Po
(гПа)
Тmin
(С)
Tmax
(С)
R
(мм)
R24
(мм)
S
(см)
21 12.08 штиль 0 н/о дымка ясно +15.4 +13.8 90 +15 +15 по сезону 1016.2 997.7
00 13.08 штиль 0 н/о дымка ясно +14.2 +13.5 96 +14 +14 по сезону 1017.1 998.5
03 13.08 штиль 0 4000 м дымка ясно +13.9 +13.2 96 +13 +14 прохладно 1016.8 998.2 +13.9
06 13.08 штиль 0 10 км дымка ясно +22.6 +15.4 64 +27 +35 душно 1016.6 998.6 +13.9
09 13.08 Ю 1 10 км ясно +26.4 +13.6 45 +28 +43 жарко 1015.8 997.8
12 13.08 Ю 1 10 км 3/3 1000 м
[Cu hum]
+27.2 +13.7 43 +29 +36 жарко 1015.0 997.0
15 13.08 Ю 2 10 км 8/8 600 м
[Cu Sc]
+26.6 +14.8 48 +29 +29 жарко 1013.8 995.9
18 13.08 н/о н/о +22.0 +14.9 64 +25 +25 комфорт 1014.3 996.1 +27.7
21 13.08 штиль 0 н/о 8/8 600 м
[Sc]
+20.5 +15.1 71 +23 +23 комфорт 1014.4 996.1
00 14.08 штиль 0 н/о слабый ливневой дождь 10/10 600 м
[Cb cap]
+20.3 +16.8 80 +23 +23 комфорт 1015.2 996.9
03 14.08 штиль 0 4000 м дымка {ливн. осадки} 10/10 600 м
[Sc]
+19.0 +18.3 96 +21 +21 комфорт 1014.4 996.0 +18.9 6
06 14.08 штиль 0 4000 м в посл. час ливневой дождь 10/10 600 м
[Cb cap]
+20.9 +19.9 94 +25 +25 комфорт 1015.1 996.8 +18.9 6
09 14.08 СЗ 1 10 км 9/6 1000 м
[Sc Ac trans Ci fib]
+22.3 +18.9 81 +28 +31 душно 1016.5 998.3
12 14.08 С 1 10 км 8/5 600 м
[Cu med, cong Ci fib]
+24.8 +16.9 61 +28 +33 жарко 1016.8 998.7
15 14.08 С 1 10 км 9/3 600 м
[Sc diur, vesp Ac trans Ci sp]
+24.3 +17.4 65 +28 +29 душно 1017.1 999.0 0.3
18 14.08 С 2 н/о 10/10 600 м
[Cb cap]
+21.5 +17.0 76 +25 +25 комфорт 1019.0 1000.6 +25.5
21 14.08 С 1 н/о слабый ливневой дождь 10/10 600 м
[Cb cap]
+18.9 +16.4 85 +21 +21 комфорт 1021.0 1002.4
00 15.08 С 1 н/о дымка {ливн. осадки} 1/0
[Ac trans]
+17.0 +15.1 89 +18 +18 тепло 1021.8 1003.1
03 15.08 С 1 4000 м дымка ясно +15.9 +13.8 87 +17 +17 по сезону 1023.4 1004.6 +15.8 2
06 15.08 СВ 2 10 км ясно +18.8 +13.4 71 +20 +26 тепло 1024.3 1005.7 +15.8 2
09 15.08 С 3 10 км 6/6 600 м
[Cu hum]
+21.9 +11.1 50 +24 +28 комфорт 1025.1 1006.6
12 15.08 10 км н/о +22.7 +8.5 40 +24 +27 комфорт 1025.4 1006.9
15 15.08 С 2 10 км ясно +21.9 +7.9 41 +23 +25 комфорт 1025.7 1007.2
18 15.08 С 1 10 км ясно +18.5 +9.4 55 +20 +20 тепло 1027.3 1008.5 +23.2
21 15.08 штиль 0 н/о ясно +13.7 +9.7 77 +13 +13 прохладно 1028.6 1009.6
00 16.08 штиль 0 н/о дымка ясно +11.7 +9.9 89 +11 +11 прохладно 1028.9 1009.6
03 16.08 штиль 0 4000 м дымка ясно +10.6 +9.6 94 +10 +10 холодно 1029.5 1010.2 +10.2
06 16.08 СВ 1 10 км ясно +19.2 +9.8 54 +21 +28 комфорт 1029.2 1010.5 +10.2
09 16.08 ЮВ 1 10 км ясно +23.0 +8.5 39 +24 +38 комфорт 1028.6 1010.1
12 16.08 ЮВ 1 10 км 6/6 1000 м
[Cu hum]
+23.7 +9.2 40 +25 +29 комфорт 1027.6 1009.2
15 16.08 10 км н/о +21.0 +11.6 55 +23 +24 комфорт 1026.8 1008.2
18 16.08 штиль 0 н/о ясно +16.5 +13.1 80 +16 +16 по сезону 1027.1 1008.3 +24.6
21 16.08 штиль 0 н/о дымка ясно +14.0 +12.7 92 +14 +14 по сезону 1027.6 1008.6
00 17.08 штиль 0 н/о дымка 9/9 600 м
[Sc]
+14.6 +13.5 93 +14 +14 по сезону 1027.7 1008.7
03 17.08 штиль 0 4000 м дымка 10/10 600 м
[Sc]
+15.8 +14.0 89 +16 +16 по сезону 1027.9 1009.0 +13.8
06 17.08 В 1 10 км 8/8 600 м
[Sc]
+19.4 +14.2 72 +22 +23 комфорт 1027.6 1009.0 +13.8
09 17.08 ЮВ 1 10 км 8/8 600 м
[Cu Sc]
+23.1 +12.1 50 +26 +28 жарко 1027.0 1008.6
12 17.08 ЮВ 1 10 км 8/8 600 м
[Cu Sc]
+25.4 +11.9 43 +27 +29 жарко 1025.8 1007.5
15 17.08 штиль 0 10 км 5/5 600 м
[Sc diur, vesp]
+23.7 +12.4 49 +26 +26 жарко 1025.0 1006.6
18 17.08 штиль 0 н/о 3/3 600 м
[Sc]
+20.1 +13.3 65 +22 +22 комфорт 1025.4 1006.8 +25.7
21 17.08 штиль 0 н/о 3/1 600 м
[Sc Ci fib]
+18.3 +13.1 72 +19 +19 тепло 1025.7 1007.0
00 18.08 штиль 0 н/о 8/0
[Ci fib]
+18.0 +12.8 72 +18 +18 тепло 1025.6 1006.9
03 18.08 штиль 0 10 км 8/1 1000 м
[Sc Ci fib]
+16.8 +13.3 80 +17 +17 тепло 1025.5 1006.7 +16.2
06 18.08 ЮВ 1 10 км 3/0
[Ci fib]
+22.1 +13.7 59 +25 +31 комфорт 1025.1 1006.7 +16.2
09 18.08 ЮВ 2 10 км 3/0
[Cc]
+25.8 +14.8 51 +29 +39 душно 1024.8 1006.6
12 18.08 ЮЗ 1 10 км 8/8 600 м
[Cu hum]
+26.9 +14.0 45 +29 +31 жарко 1023.5 1005.4
15 18.08 Ю 1 10 км 8/8 600 м
[Cu med, cong]
+26.6 +13.9 46 +29 +29 жарко 1022.5 1004.4
18 18.08 штиль 0 н/о 3/0
[Ci fib]
+20.8 +14.9 69 +23 +23 комфорт 1023.0 1004.5 +27.7
21 18.08 штиль 0 н/о 3/0
[Ci fib]
+19.9 +14.4 71 +22 +22 комфорт 1022.9 1004.4
00 19.08 штиль 0 н/о ясно +18.5 +13.3 72 +19 +19 тепло 1022.7 1004.1
03 19.08 штиль 0 10 км 9/8 600 м
[Sc Ci fib]
+16.9 +14.7 87 +17 +17 тепло 1022.9 1004.2 +15.5
06 19.08 ЮВ 1 10 км 8/3 1000 м
[Sc Ci fib]
+23.7 +13.6 53 +26 +30 жарко 1022.3 1004.0 +15.5
09 19.08 ЮВ 1 10 км 8/3 1000 м
[Sc Ci fib]
+28.1 +14.2 43 +30 +38 жарко 1021.6 1003.6
12 19.08 Ю 1 10 км 5/0
[Ci fib]
+30.6 +13.0 34 +32 +40 жарко 1020.9 1003.1
15 19.08 Ю 1 10 км ясно +28.6 +12.9 38 +30 +32 жарко 1020.4 1002.4

 

Местоположение метеостанции Москва (город Москва, Россия): широта 55.83 долгота 37.62 высота над уровнем моря 156 м.

В архиве по умолчанию представлена погода в Москве за последнюю неделю. Архивные данные за месяц целиком и за предыдущие месяцы, начиная с января 2011 года, Вы можете получить, выбрав интересующий диапазон дат из раскрывающегося списка и нажав кнопку "Ввод!".

Внимание! Время в таблицах - всемирное. Для получения местного времени необходимо прибавить поправку, которая в Москве равна 3 ч.

Смотрите также архив погоды в соседних городах и на ближайших метеорологических станциях:

Погода в Москве (Балчуг) (город Москва, Россия) (9 км)
Погода в Москве (Тушино) (город Москва, Россия) (12 км)
Погода в Москве (Строгино) (город Москва, Россия) (14 км)
Погода в Шереметьево (Московская область, Россия) (20 км)
Погода в Немчиновке (город Москва, Россия) (21 км)
Погода в Подмосковной (Московская область, Россия) (29 км)
Погода в Внуково (Московская область, Россия) (33 км)
Погода в Михайловском (Московская область, Россия) (49 км)
Погода в Ново-Йерусалиме (Московская область, Россия) (51 км)
Погода в Домодедово (Московская область, Россия) (51 км)

Пояснения к столбцам:

Ветер - указаны скорость ветра в м/с - средняя за 10 мин, порывы в срок и между сроками (в фигурных скобках) и направление, откуда дует ветер: С - северный, СВ - северо-восточный, В - восточный, ЮВ - юго-восточный, Ю - южный, ЮЗ - юго-западный, З - западный, СЗ - северо-западный.
Видимость - горизонтальная дальность видимости в метрах или километрах. При видимости от 1 до 10 км при отсутствии осадков обычно наблюдается дымка, при ухудшении видимости до 1 км и менее - туман. В сухую погоду видимость может ухудшаться дымом, пылью или мглою.
Явления - указаны атмосферные явления, наблюдавшиеся в срок или в последний час перед сроком; фигурными скобками обозначены явления, наблюдавшиеся между сроками (за 1-3 часа до срока); квадратными скобками обозначены град или гололедные отложения с указанием их диаметра в мм.
Облачность - указаны через наклонную черту общая и нижняя облачность в баллах и высота нижней границы облаков в метрах; квадратными скобками обозначены формы облаков: Ci - перистые, Cs - перисто-слоистые, Cc - перисто-кучевые, Ac - высококучевые, As - высокослоистые, Sc - слоисто-кучевые, Ns - слоисто-дождевые, Cu - кучевые, Cb - кучево-дождевые. Подробнее классификацию облаков см. в Атласе облаков (PDF).
T - Температура воздуха - температура, измеренная на высоте 2 м над землей.
Td - Температура точки росы - температура, при понижении до которой содержащийся в воздухе водяной пар достигнет насыщения.
f - Относительная влажность воздуха - влажноcть воздуха, измеренная на высоте 2 м над землей.
Te - Эффективная температура - температура, которую ощущает одетый по сезону человек в тени. Характеристика душности погоды. При расчете учитывается влияние влажности воздуха и скорости ветра на теплоощущения человека.
Tes - Эффективная температура на солнце - температура, которую ощущает человек, с поправкой на солнечный нагрев. Характеристика знойности погоды. Зависит от высоты солнца над горизонтом, облачности и скорости ветра. Ночью, в пасмурную погоду, а также при ветре 12 м/с и более поправка равна нулю.
P - Атмосферное давление - приведенное к уровню моря атмосферное давление.
Po - Атмосферное давление - измеренное на уровне метеостанции атмосферное давление.
Tmin - Минимальная температура - минимум температуры воздуха на высоте 2 м над землей.
Tmax - Максимальная температура - максимум температуры воздуха на высоте 2 м над землей.
R - Количество осадков - Количество выпавших осадков за период времени, мм. При наведении курсора мыши на число - период времени, за который выпало указанное количество осадков.
R24 - Количество осадков - Количество выпавших осадков за 24 часа, мм.
S - Снежный покров - Высота снежного покрова, см. При наведении курсора мыши на число - состояние снежного покрова и степень покрытия местности в баллах.